Preview of NWS' New Version of Forecast
This preview is not operational and should not be used for support decisions.

Regional Weather Roundup (RWR)

Issued by National Weather Service (NWS)

                            
000
ASUS43 KTOP 190108
RWRKS 

WEATHER ROUNDUP FOR KANSAS
NATIONAL WEATHER SERVICE GOODLAND KS
800 PM CDT TUE JUN 18 2019

NOTE:  "FAIR" INDICATES FEW OR NO CLOUDS BELOW 12,000 FEET WITH NO
SIGNIFICANT WEATHER AND/OR OBSTRUCTIONS TO VISIBILITY.

KSZ001>006-013>018-027>032-041>047-190200-
NORTHWEST KANSAS
  
CITY           SKY/WX    TMP DP  RH WIND       PRES   REMARKS
GOODLAND       CLOUDY    67  61  81 E3        29.94S                  
HAYS           MOSUNNY   69  63  81 N15       29.88R                  
HILL CITY      MOSUNNY   68  62  81 N12       29.91R                  
RUSSELL        MOSUNNY   69  63  81 NE8       29.86R                  
$$

KSZ061>065-074>080-084>089-190200-
SOUTHWEST KANSAS
  
CITY           SKY/WX    TMP DP  RH WIND       PRES   REMARKS
DODGE CITY     SUNNY     71  66  84 N13       29.88R                  
ELKHART        MOSUNNY   78  63  58 NE7       29.88S                  
GARDEN CITY    MOSUNNY   72  65  78 E10       29.89S                  
GREAT BEND     CLEAR     69  65  86 N6        29.87R                  
LIBERAL        SUNNY     79  62  56 NE12      29.86F                  
PRATT          CLEAR     74  68  80 NE10      29.87R                  
$$

KSZ066>073-081>083-090>101-190200-
SOUTHEAST KANSAS
  
CITY           SKY/WX    TMP DP  RH WIND       PRES   REMARKS
CHANUTE        LGT RAIN  67  63  87 N12G22    29.87F                  
COFFEYVILLE    PTCLDY    80  68  66 CALM      29.82R                  
HUTCHINSON     CLOUDY    73  65  75 E8        29.85R                  
MEDICINE LODGE   N/A     75  67  76 E18G26    29.82R                  
NEWTON         MOCLDY    66  63  90 NE5       29.86R                  
PARSONS        CLOUDY    76  66  71 N26G40    29.89R                  
WICHITA INTL   MOCLDY    70  65  84 E7        29.84S                  
WICHITA JABRA  CLEAR     67  66  97 NE6       29.84F                  
WICHITA MCCONL PTCLDY    67  65  94 NE5       29.85R                  
WINFIELD       PTCLDY    67  63  87 N12       29.83S                  
$$

KSZ007>012-019>026-033>040-048>060-102>105-190200-
NORTHEAST KANSAS
  
CITY           SKY/WX    TMP DP  RH WIND       PRES   REMARKS
CONCORDIA      CLOUDY    67  64  90 MISG      29.86S                  
EMPORIA        LGT RAIN  66  66 100 E5        29.86R                  
LAWRENCE       LGT RAIN  69  65  86 E7        29.83F                  
MANHATTAN      CLOUDY    68  66  93 E5        29.84S                  
MARYSVILLE     CLOUDY    64  63  94 NE12G17   29.85S                  
OLATHE IND     RAIN      68  63  84 CALM      29.84F                  
OLATHE EXE     LGT RAIN  71  68  90 CALM      29.85F                  
SALINA         CLOUDY    73  65  75 NE7       29.85R                  
TOPEKA BILLARD LGT RAIN  68  65  90 N6        29.84R                  
TOPEKA FORBES  LGT RAIN  68  64  87 E5        29.84R                  
$$